Location: Berville
(49.1893°N, 2.0748°E)
Time: 06:49:02
(UTC+00:00)

Cosmos 1814 Rocket - Pass Details

Date: 08 February 2023
Orbit: 743 x 787 km, 74.1° (Epoch: 21 March)

Event Time Altitude Azimuth Distance (km) Brightness Sun altitude
Rises 18:31:42 0° 336° (NNW) 3,289 7.5 -15.4°
Reaches altitude 10° 18:34:05 10° 336° (NNW) 2,358 6.8 -15.8°
Maximum altitude 18:39:28 85° 250° (WSW) 797 4.1 -16.7°
Drops below altitude 10° 18:44:49 10° 161° (SSE) 2,338 6.3 -17.5°
Sets 18:47:11 0° 161° (SSE) 3,259 7.1 -17.9°
